SCP
0 0 0 0 0 0 0 0 0 0 0 0 0 0 0 0 -0 -0 -0 0 0 0 0 0 0 0 0 0 0 0 0 0 0 0 0 0 0 0 0 0 0 0 0 0
0 0 0 0 0 0 0 0 0 0 0 0 0 0 -0 0 -0 -0 -0 0 0 0 0 0 0 0 0 0 0 0 0 0 0 0 0 0 0 0 0 0 0 0 0 0
0 0 0 0 0 0 0 0 0 0 0 0 0 0 -0 0 0 0 -0 -0 0 0 0 0 0 0 0 0 0 0 0 0 0 0 0 0 0 0 0 0 0 0 0 0
0 0 0 0 0 0 0 0 0 0 0 0 0 0 -0 0 0 0 0 0 0 0 0 0 0 0 0 0 0 0 0 0 0 0 0 0 0 0 0 0 0 0 0 0
0 0 0 0 0 0 0 0 0 0 0 0 0 0 0 0 0 0 0 0 0 0 0 0 0 0 0 0 0 0 0 0 0 0 0 0 0 0 0 0 0 0 0 0
0 0 0 0 0 0 0 0 0 0 0 0 0 0 0 0 0 0 0 0 0 0 0 0 0 0 0 0 0 0 0 0 0 0 0 0 0 0 0 0 0 0 0 0
0 0 0 0 0 0 0 0 0 0 0 0 0 0 0 0 0 0 0 0 0 0 0 0 0 0 0 0 0 0 0 0 0 0 0 0 0 0 0 0 0 0 0 0
0 0 0 0 0 0 0 0 0 0 0 0 0 0 0 0 0 0 0 0 0 0 0 0 0 0 0 0 0 0 0 0 0 0 0 0 0 0 0 0 0 0 0 0
0 0 0 0 0 0 0 0 0 0 0 0 0 0 0 0 0 0 0 0 0 0 0 0 0 0 0 0 0 0 0 0 0 0 0 0 0 0 0 0 0 0 0 0
0 0 0 0 0 0 0 0 0 0 0 0 0 0 0 0 0 0 0 0 0 0 0 0 0 0 0 0 0 0 0 0 0 0 0 0 0 0 0 0 0 0 0 0
0 0 0 0 0 0 0 0 0 0 0 0 0 0 0 0 0 0 0 0 0 0 0 0 0 0 0 0 0 0 0 0 0 0 0 0 0 0 0 0 0 0 0 0
0 0 0 0 0 0 0 0 0 0 0 0 0 0 0 0 0 0 0 0 0 0 0 0 0 0 0 0 0 0 0 0 0 0 0 0 0 0 0 0 0 0 0 0
0 0 0 0 0 0 0 0 0 0 0 0 0 0 0 0 0 0 0 0 0 0 0 0 0 0 0 0 0 0 0 0 0 0 0 0 0 0 0 0 0 0 0 0
0 0 0 0 0 0 0 0 0 0 0 0 0 0 0 0 0 0 0 0 0 0 0 0 0 0 0 0 0 0 0 0 0 0 0 0 0 0 0 0 0 0 0 0
0 0 0 0 0 0 0 0 0 0 0 0 0 0 0 0 0 0 0 0 0 0 0 0 0 0 0 0 0 0 0 0 0 0 0 0 0 0 0 0 0 0 0 0
0 0 0 0 0 0 0 0 0 0 0 0 0 0 0 0 0 0 0 0 0 0 0 0 0 0 0 0 0 0 0 0 0 0 0 0 0 0 0 0 0 0 0 0
0 0 0 0 0 0 0 0 0 0 0 0 0 0 0 0 0 0 0 0 0 0 0 0 0 0 0 0 0 0 0 0 0 0 0 0 0 0 0 0 0 0 0 0
0 0 0 0 0 0 0 0 0 0 0 0 0 0 0 0 0 0 0 0 0 0 0 0 0 0 0 0 0 0 0 0 0 0 0 0 0 0 0 0 0 0 0 0
0 0 0 0 0 0 0 0 0 0 0 0 0 0 0 0 0 0 0 0 0 0 0 0 0 0 0 0 0 0 0 0 0 0 0 0 0 0 0 0 0 0 0 0
0 0 0 0 0 0 0 0 0 0 0 0 0 0 0 0 0 0 0 0 0 0 0 0 0 0 0 0 0 0 0 0 0 0 0 0 0 0 0 0 0 0 0 0
0 0 0 0 0 0 0 0 0 0 0 0 0 0 0 0 0 0 0 0 0 0 0 0 0 0 0 0 0 0 0 0 0 0 0 0 0 0 0 0 0 0 0 0
0 0 0 0 0 0 0 0 0 0 0 0 0 0 0 0 0 0 0 0 0 0 0 0 0 0 0 0 0 0 0 0 0 0 0 0 0 0 0 0 0 0 0 0
0 0 0 0 0 0 0 0 0 0 0 0 0 0 0 0 0 0 0 0 0 0 0 0 0 0 0 0 0 0 0 0 0 0 0 0 0 0 0 0 0 0 0 0
0 0 0 0 0 0 0 0 0 0 0 0 0 0 0 0 0 0 0 0 0 0 0 0 0 0 0 0 0 0 0 0 0 0 0 0 0 0 0 0 0 0 0 0
0 0 0 0 0 0 0 0 0 0 0 0 0 0 0 0 0 0 0 0 0 0 0 0 0 0 0 0 0 0 0 0 0 0 0 0 0 0 0 0 0 0 0 0
0 0 0 0 0 0 0 0 0 0 0 0 0 0 0 0 0 0 0 0 0 0 0 0 0 0 0 0 0 0 0 0 0 0 0 0 0 0 0 0 0 0 0 0
0 0 0 0 0 0 0 0 0 0 0 0 0 0 0 0 0 0 0 0 0 0 0 0 0 0 0 0 0 0 0 0 0 0 0 0 0 0 0 0 0 0 0 0
Wind_Speed
5 5 4 6 7 7 9 8 9 8 8 10 6 6 5 4 3 2 2 2 2 3 3 3 2 2 2 3 2 2 2 2 3 3 3 3 3 3 3 3 4 4 4 4
4 2 4 7 10 10 10 9 10 8 12 8 5 3 4 4 4 4 4 4 3 3 3 3 3 3 2 3 2 1 2 3 3 3 2 3 3 3 3 3 3 3 4 4
4 4 5 9 11 12 8 8 9 12 11 3 3 5 6 6 5 6 5 4 4 3 4 4 3 3 3 3 2 2 2 3 3 3 3 3 3 3 3 3 3 4 4 4
2 3 7 8 1 6 7 7 9 8 5 4 6 5 4 4 6 6 4 4 3 3 3 3 2 2 2 2 2 2 3 3 3 3 3 3 3 4 4 3 3 4 4 5
1 3 10 9 3 5 6 7 8 10 7 4 1 1 3 3 4 5 4 4 4 3 3 2 2 2 1 2 2 2 3 4 3 3 3 3 4 5 4 3 4 4 4 4
3 4 8 6 1 3 2 6 4 7 6 4 4 1 5 3 3 3 2 2 2 2 1 2 2 1 1 2 2 4 4 4 4 3 4 4 5 5 3 3 4 4 4 4
5 6 11 7 2 4 3 6 2 4 5 6 7 6 3 2 2 2 2 2 2 2 2 3 2 1 2 3 4 5 4 4 4 4 4 5 4 3 3 3 4 4 5 5
6 7 12 4 7 7 8 2 2 3 4 6 6 3 2 2 2 2 2 2 2 2 3 3 2 2 3 5 5 4 3 4 4 4 4 3 4 4 3 3 4 4 4 5
11 11 5 5 7 5 3 3 3 3 4 5 4 4 4 3 3 3 3 3 2 3 3 3 3 3 4 5 4 3 3 4 4 4 4 3 3 4 3 3 3 4 4 5
7 10 7 7 7 5 5 5 5 4 4 5 5 5 5 4 3 3 3 3 2 2 3 4 3 4 5 5 3 3 4 5 4 4 4 4 3 3 3 4 4 4 5 5
8 8 6 7 8 8 6 5 5 4 5 6 6 6 5 5 4 4 3 3 2 3 4 5 4 4 5 4 3 3 4 5 4 4 4 4 4 4 5 6 6 6 5 5
10 8 7 6 5 6 6 7 7 6 5 5 6 7 5 5 5 4 4 3 3 4 5 5 4 5 5 4 3 3 4 4 4 4 4 4 4 5 8 10 13 14 13 10
10 6 7 7 5 5 6 7 7 7 7 6 5 5 5 5 4 4 4 4 4 5 5 5 5 6 5 4 3 4 5 5 4 4 4 4 4 4 6 6 9 12 13 13
8 5 6 7 6 5 5 5 5 4 5 5 4 4 4 4 3 4 5 5 4 4 5 5 5 7 5 4 4 5 5 6 5 4 4 4 4 4 4 5 6 6 7 11
9 8 8 6 4 4 3 3 3 4 3 3 3 4 4 5 5 6 5 4 3 4 5 5 6 7 4 4 4 5 5 4 4 4 4 4 4 4 5 6 6 6 6 6
6 6 6 6 6 5 4 4 5 5 5 5 4 5 5 5 5 4 4 3 3 5 6 5 7 7 4 4 5 5 5 8 7 4 4 4 4 4 5 5 6 6 6 6
6 6 6 6 7 7 6 6 7 6 5 5 6 5 4 3 3 4 4 4 5 6 6 7 8 6 5 5 5 4 4 5 8 5 4 5 5 5 5 6 6 7 7 7
9 9 7 7 7 6 6 6 6 5 6 6 4 3 4 4 5 5 5 4 4 6 7 7 7 6 6 5 5 4 4 4 4 5 5 5 5 5 6 6 7 8 7 7
5 6 6 6 6 5 5 5 5 5 4 4 4 5 5 5 5 5 4 3 5 7 7 5 7 6 6 6 6 4 4 5 5 5 5 8 7 5 5 6 7 7 7 6
3 3 3 3 3 3 4 3 3 3 3 3 3 4 4 5 4 4 4 5 6 6 6 6 6 5 6 6 7 4 5 5 6 6 5 5 6 6 6 6 7 7 6 6
2 2 2 2 2 2 3 3 3 3 3 3 4 5 5 5 4 4 4 6 6 5 6 8 5 5 5 6 7 4 5 5 6 6 6 6 6 6 6 6 7 6 6 6
2 2 2 2 2 2 2 2 3 3 3 3 4 4 4 5 5 5 6 7 7 7 5 4 4 7 8 9 4 4 5 6 6 6 6 6 6 7 7 7 6 6 6 6
2 2 2 3 3 2 2 2 3 3 4 4 5 5 5 5 4 4 6 5 4 8 6 5 8 12 13 7 4 5 6 6 6 6 6 6 6 7 7 7 6 6 6 6
2 2 2 2 1 1 3 4 3 3 4 5 5 5 5 4 5 5 6 8 9 10 6 8 13 14 12 5 4 5 5 6 6 6 6 6 6 6 6 6 6 6 6 6
2 2 2 2 2 3 4 3 3 3 4 4 5 5 5 5 5 5 5 6 9 10 6 9 13 13 7 4 5 5 5 6 6 6 6 6 6 6 6 6 6 6 5 5
2 3 3 3 3 3 3 2 3 3 3 4 5 4 4 4 5 5 5 6 8 10 7 5 6 7 5 5 5 6 6 6 7 6 6 6 6 6 6 6 7 6 5 5
2 2 2 3 3 3 3 3 4 4 4 5 6 5 4 4 4 5 6 6 6 6 5 5 5 5 5 5 5 6 5 5 5 6 6 6 5 5 6 6 5 5 4 4
Wind_Direction
250 261 245 240 234 206 205 205 209 234 235 253 247 241 242 237 232 230 243 247 243 248 258 265 270 276 273 275 277 262 256 261 264 269 267 266 268 268 264 254 249 244 243 245
288 277 262 260 243 225 226 225 233 253 263 249 245 231 235 230 220 226 237 240 245 252 256 261 264 271 279 284 283 263 257 264 271 275 272 267 268 272 274 268 260 250 245 244
279 308 319 268 232 204 207 209 196 224 243 238 234 227 224 223 219 223 232 238 243 247 249 254 253 247 259 271 280 278 269 273 274 271 273 274 276 277 271 266 258 257 253 246
287 344 254 249 204 185 206 232 215 231 244 226 229 236 235 217 210 222 228 233 240 242 252 255 246 248 259 274 280 276 273 275 274 275 280 284 278 269 266 259 254 255 257 252
183 264 278 289 239 178 190 261 218 221 238 242 233 9 294 232 203 209 215 220 223 226 233 248 261 261 267 279 277 273 273 274 273 269 274 279 275 271 266 261 263 257 259 253
180 230 253 260 199 176 134 283 238 196 214 192 135 188 262 233 203 220 227 223 224 230 232 255 265 255 247 265 267 265 267 269 269 260 259 264 266 268 260 253 259 265 266 256
208 239 264 255 189 133 181 252 231 185 193 177 190 211 230 193 199 214 228 237 223 217 238 249 253 232 248 262 260 261 268 274 274 266 261 262 266 260 262 262 268 269 269 266
182 213 252 209 148 186 218 237 187 196 195 196 216 228 220 211 224 231 242 247 230 227 252 256 239 218 248 261 264 271 275 278 278 275 270 268 267 272 268 261 269 274 275 279
198 216 241 186 203 222 200 207 211 205 217 202 210 224 224 227 235 238 235 238 229 226 257 266 244 223 247 262 272 277 280 279 279 280 274 266 261 268 274 258 258 267 265 272
246 258 251 242 243 243 220 222 224 215 212 199 215 223 223 229 234 236 240 239 236 233 255 268 260 250 248 264 269 269 275 279 277 277 280 275 262 250 251 252 254 257 258 263
249 266 283 262 235 233 230 230 235 234 220 214 214 224 220 224 229 230 235 238 229 233 251 264 269 269 267 265 264 269 274 275 276 270 270 274 265 249 249 243 239 247 251 249
232 225 213 243 237 215 215 226 226 224 232 227 213 219 217 223 227 224 229 231 239 246 252 264 269 272 272 262 248 254 271 273 270 270 270 267 274 283 260 255 265 263 259 255
237 236 224 248 250 224 222 230 227 220 221 224 219 212 213 223 225 222 229 233 240 248 255 264 271 273 271 259 245 243 255 266 267 264 265 265 264 272 290 288 269 267 267 266
235 234 249 245 243 238 232 235 229 226 224 218 215 213 212 220 226 230 236 238 243 253 260 263 269 272 270 256 248 252 257 261 261 258 258 260 260 262 266 280 292 289 276 273
230 220 233 246 246 240 231 216 214 229 230 230 217 213 212 218 231 240 242 240 246 256 260 262 267 272 270 252 252 257 260 260 256 256 255 256 259 262 264 267 272 280 287 284
230 230 233 235 239 238 226 214 220 233 228 224 223 226 226 229 238 247 244 229 236 256 262 264 267 270 268 255 257 260 258 263 264 259 259 260 257 259 263 266 269 271 272 274
216 231 228 232 236 236 229 224 224 228 223 223 227 227 225 232 248 254 254 244 241 253 259 259 264 271 265 252 249 254 258 265 268 266 256 256 256 258 260 262 265 267 267 267
220 227 222 221 226 233 236 231 226 224 223 225 219 210 216 224 239 252 260 266 272 275 267 256 259 266 263 255 248 248 251 256 256 256 260 259 260 256 259 262 265 268 273 274
230 231 232 229 225 220 224 226 225 224 223 209 205 219 228 234 239 250 259 263 269 277 275 262 269 268 265 262 260 248 250 257 261 260 259 269 272 264 263 266 268 269 272 273
232 231 233 236 225 213 220 224 219 224 223 207 211 228 243 248 245 248 251 255 250 248 261 275 276 268 264 264 262 246 246 252 260 265 265 262 265 268 267 267 268 270 270 268
231 225 219 225 234 231 222 212 207 224 231 214 216 232 246 256 250 244 252 272 270 252 258 272 270 263 260 262 262 247 246 253 259 263 265 267 268 268 268 267 268 268 268 268
225 220 230 232 230 251 250 222 212 220 233 239 240 242 252 262 260 254 245 249 265 275 274 263 262 268 272 273 252 246 250 255 258 262 263 264 267 269 268 267 266 266 265 264
235 236 240 239 233 242 263 247 229 225 234 241 245 247 250 253 248 252 272 260 256 274 275 262 271 279 282 274 253 251 253 256 259 261 263 263 263 263 266 267 266 266 266 264
242 243 244 243 218 229 257 262 251 245 244 250 249 247 247 259 263 244 246 271 280 284 275 275 283 286 286 269 255 253 255 256 257 259 262 263 262 262 264 265 266 266 264 263
244 246 246 240 244 249 253 260 271 268 263 264 262 256 245 234 245 262 262 264 274 283 277 279 285 287 281 262 256 257 257 256 259 261 258 260 261 262 263 263 263 264 263 261
247 245 244 239 241 248 248 246 255 261 264 272 273 263 254 248 248 256 263 265 266 276 275 270 271 278 267 261 260 260 259 266 271 266 259 260 260 259 261 261 261 261 260 259
260 258 259 267 259 241 233 235 245 256 254 257 269 269 263 261 260 261 263 266 267 266 266 266 263 260 261 261 261 261 260 259 258 259 259 258 257 256 256 256 257 257 256 255